Heubes-Wetterstation in 44289 Dortmund
Heubes-Wetterstation

Messwerte der letzten 60 Minuten im Minuten-Intervall (Wetterstation 44289 Dortmund)

Datum & Uhrzeit Temp. Feucht. Wind-Ø Böen Sekt.  Regen Rate Luftdruck
24.11.2020 - 12:528.3 °C87%3 km/h 11 km/h SW0.0 mm 0.0 mm 1022.8 hPa, gleichbleibend
24.11.2020 - 12:518.3 °C87%3 km/h 10 km/h SW0.0 mm 0.0 mm 1022.7 hPa, gleichbleibend
24.11.2020 - 12:508.2 °C88%3 km/h 11 km/h S0.0 mm 0.0 mm 1022.7 hPa, gleichbleibend
24.11.2020 - 12:498.2 °C88%3 km/h 10 km/h S0.0 mm 0.0 mm 1022.8 hPa, gleichbleibend
24.11.2020 - 12:488.1 °C88%3 km/h 7 km/h S0.0 mm 0.0 mm 1022.7 hPa, gleichbleibend
24.11.2020 - 12:478.0 °C88%3 km/h 3 km/h S0.0 mm 0.0 mm 1022.8 hPa, gleichbleibend
24.11.2020 - 12:468.0 °C88%3 km/h 11 km/h S0.0 mm 0.0 mm 1022.7 hPa, gleichbleibend
24.11.2020 - 12:458.0 °C88%3 km/h 10 km/h S0.0 mm 0.0 mm 1022.8 hPa, gleichbleibend
24.11.2020 - 12:447.9 °C88%3 km/h 8 km/h S-SO0.0 mm 0.0 mm 1022.8 hPa, gleichbleibend
24.11.2020 - 12:437.9 °C88%3 km/h 10 km/h S-SO0.0 mm 0.0 mm 1022.8 hPa, langsam fallend
24.11.2020 - 12:427.9 °C88%3 km/h 8 km/h S-SW0.0 mm 0.0 mm 1022.9 hPa, gleichbleibend
24.11.2020 - 12:417.8 °C88%3 km/h 11 km/h S-SW0.0 mm 0.0 mm 1022.9 hPa, gleichbleibend
24.11.2020 - 12:407.8 °C88%3 km/h 8 km/h SO0.0 mm 0.0 mm 1022.9 hPa, gleichbleibend
24.11.2020 - 12:397.8 °C88%3 km/h 8 km/h S-SO0.0 mm 0.0 mm 1022.9 hPa, gleichbleibend
24.11.2020 - 12:387.8 °C88%3 km/h 10 km/h S0.0 mm 0.0 mm 1022.9 hPa, langsam steigend
24.11.2020 - 12:377.8 °C88%3 km/h 10 km/h SO0.0 mm 0.0 mm 1022.8 hPa, langsam fallend
24.11.2020 - 12:367.9 °C87%3 km/h 7 km/h SO0.0 mm 0.0 mm 1022.9 hPa, gleichbleibend
24.11.2020 - 12:357.9 °C87%3 km/h 14 km/h S-SO0.0 mm 0.0 mm 1022.9 hPa, gleichbleibend
24.11.2020 - 12:347.9 °C87%3 km/h 13 km/h S0.0 mm 0.0 mm 1022.9 hPa, langsam fallend
24.11.2020 - 12:337.9 °C87.5%3 km/h 3 km/h SO0.0 mm 0.0 mm 1023.0 hPa, gleichbleibend
24.11.2020 - 12:327.9 °C88%3 km/h 7 km/h SO0.0 mm 0.0 mm 1023.0 hPa, gleichbleibend
24.11.2020 - 12:317.9 °C88%3 km/h 13 km/h SO0.0 mm 0.0 mm 1023.0 hPa, gleichbleibend
24.11.2020 - 12:307.9 °C88%3 km/h 8 km/h SO0.0 mm 0.0 mm 1023.0 hPa, langsam fallend
24.11.2020 - 12:297.9 °C88%3 km/h 7 km/h S-SO0.0 mm 0.0 mm 1023.1 hPa, gleichbleibend
24.11.2020 - 12:287.8 °C88%3 km/h 10 km/h SO0.0 mm 0.0 mm 1023.1 hPa, gleichbleibend
24.11.2020 - 12:277.8 °C88%3 km/h 11 km/h SO0.0 mm 0.0 mm 1023.1 hPa, gleichbleibend
24.11.2020 - 12:267.8 °C87.5%4 km/h 0 km/h S-SO0.0 mm 0.0 mm 1023.1 hPa, gleichbleibend
24.11.2020 - 12:257.9 °C87%4 km/h 11 km/h S0.0 mm 0.0 mm 1023.1 hPa, gleichbleibend
24.11.2020 - 12:247.9 °C87%3 km/h 14 km/h SO0.0 mm 0.0 mm 1023.1 hPa, gleichbleibend
24.11.2020 - 12:237.9 °C87%3 km/h 0 km/h S0.0 mm 0.0 mm 1023.1 hPa, gleichbleibend
24.11.2020 - 12:227.9 °C87%3 km/h 8 km/h S0.0 mm 0.0 mm 1023.1 hPa, langsam fallend
24.11.2020 - 12:217.9 °C87%3 km/h 10 km/h S0.0 mm 0.0 mm 1023.2 hPa, gleichbleibend
24.11.2020 - 12:207.9 °C87%3 km/h 16 km/h S0.0 mm 0.0 mm 1023.2 hPa, gleichbleibend
24.11.2020 - 12:197.9 °C87%2 km/h 13 km/h S-SW0.0 mm 0.0 mm 1023.2 hPa, gleichbleibend
24.11.2020 - 12:188.0 °C87%1 km/h 10 km/h S0.0 mm 0.0 mm 1023.2 hPa, gleichbleibend
24.11.2020 - 12:178.0 °C87%1 km/h 8 km/h S0.0 mm 0.0 mm 1023.2 hPa, gleichbleibend
24.11.2020 - 12:168.0 °C87%3 km/h 14 km/h SW0.0 mm 0.0 mm 1023.2 hPa, gleichbleibend
24.11.2020 - 12:158.0 °C87%2 km/h 13 km/h S-SO0.0 mm 0.0 mm 1023.2 hPa, gleichbleibend
24.11.2020 - 12:148.0 °C87%1 km/h 11 km/h S-SO0.0 mm 0.0 mm 1023.3 hPa, gleichbleibend
24.11.2020 - 12:138.0 °C87%1 km/h 3 km/h S-SO0.0 mm 0.0 mm 1023.3 hPa, gleichbleibend
24.11.2020 - 12:128.0 °C87%1 km/h 0 km/h SO0.0 mm 0.0 mm 1023.3 hPa, gleichbleibend
24.11.2020 - 12:118.1 °C87%1 km/h 7 km/h SO0.0 mm 0.0 mm 1023.3 hPa, gleichbleibend
24.11.2020 - 12:108.1 °C87%1 km/h 16 km/h S-SW0.0 mm 0.0 mm 1023.3 hPa, gleichbleibend
24.11.2020 - 12:098.1 °C87.5%1 km/h 10 km/h S-SW0.0 mm 0.0 mm 1023.3 hPa, gleichbleibend
24.11.2020 - 12:088.1 °C88%1 km/h 10 km/h S-SO0.0 mm 0.0 mm 1023.3 hPa, gleichbleibend
24.11.2020 - 12:078.1 °C88%1 km/h 16 km/h S0.0 mm 0.0 mm 1023.3 hPa, gleichbleibend
24.11.2020 - 12:068.1 °C88%1 km/h 11 km/h S0.0 mm 0.0 mm 1023.3 hPa, gleichbleibend
24.11.2020 - 12:058.1 °C88%1 km/h 7 km/h SW0.0 mm 0.0 mm 1023.3 hPa, gleichbleibend
24.11.2020 - 12:048.0 °C88%3 km/h 0 km/h SW0.0 mm 0.0 mm 1023.3 hPa, gleichbleibend
24.11.2020 - 12:038.0 °C87%3 km/h 0 km/h S-SW0.0 mm 0.0 mm 1023.3 hPa, langsam fallend
24.11.2020 - 12:028.0 °C87%3 km/h 0 km/h S-SW0.0 mm 0.0 mm 1023.4 hPa, gleichbleibend
24.11.2020 - 12:018.0 °C87%3 km/h 11 km/h S-SO0.0 mm 0.0 mm 1023.4 hPa, gleichbleibend
24.11.2020 - 12:008.0 °C87%4 km/h 13 km/h S-SO0.0 mm 0.0 mm 1023.4 hPa, langsam steigend
24.11.2020 - 11:598.0 °C87%5 km/h 11 km/h S0.0 mm 0.0 mm 1023.3 hPa, langsam fallend
24.11.2020 - 11:588.0 °C87%5 km/h 11 km/h S-SO0.0 mm 0.0 mm 1023.4 hPa, gleichbleibend
24.11.2020 - 11:578.0 °C87%5 km/h 11 km/h S0.0 mm 0.0 mm 1023.4 hPa, gleichbleibend
24.11.2020 - 11:568.0 °C87%5 km/h 16 km/h S-SO0.0 mm 0.0 mm 1023.4 hPa, gleichbleibend
24.11.2020 - 11:558.0 °C87%5 km/h 11 km/h S0.0 mm 0.0 mm 1023.4 hPa, gleichbleibend
24.11.2020 - 11:548.0 °C87%4 km/h 16 km/h S-SO0.0 mm 0.0 mm 1023.4 hPa, gleichbleibend
24.11.2020 - 11:537.9 °C87%4 km/h 7 km/h S-SO0.0 mm 0.0 mm 1023.4 hPa, langsam fallend